Вернуться в каталог

STARLINK-36375

АктивенСвязьVLEO
NORAD 67920·PAYLOAD·🇺🇸 United States

Запущен Feb 22, 2026 с Vandenberg Space Force Base

Loading…

Ближайшие Пролёты (ближайшие 24 часа)

TLE

СвежийSource: CelesTrak SupGP

Эпоха: Sep 15, 2026, 03:38 UTC

1 67920C 26036S   26258.15187500 -.00030958  00000+0 -11215-2 0  2587
2 67920  42.9992 255.6219 0001314 267.1055 104.6164 15.27588701    13

Отслеживайте STARLINK-36375 в реальном времени с AllMySat

Download on the App Store